This is the latest recevied weather packets stored in our database for station/object WX7FGZ-3. If no packets are shown the sender has not sent any weather packets the latest 10 day(s).
| Time | Temp. | Humidity | Pressure | Rain* | Wind** | Luminosity | Snow |
|---|---|---|---|---|---|---|---|
| 1778043087 | 3.33° C | 84% | 1009.7 hPa | 0 mm | - | - | - |
| 1778042787 | 3.33° C | 84% | 1009.6 hPa | 0 mm | - | - | - |
| 1778041286 | 3.33° C | 85% | 1009.4 hPa | 0 mm | - | - | - |
| 1778040685 | 3.33° C | 84% | 1009.2 hPa | 0 mm | - | - | - |
| 1778040085 | 3.89° C | 84% | 1009.1 hPa | 0 mm | - | - | - |
| 1778039785 | 3.89° C | 84% | 1008.8 hPa | 0 mm | - | - | - |
| 1778039484 | 3.89° C | 84% | 1008.8 hPa | 0 mm | - | - | - |
| 1778039184 | 3.89° C | 84% | 1008.7 hPa | 0 mm | - | - | - |
| 1778038583 | 3.89° C | 85% | 1008.7 hPa | 0 mm | - | - | - |
| 1778038283 | 3.89° C | 85% | 1008.4 hPa | 0 mm | - | - | - |
| 1778037983 | 3.33° C | 86% | 1008.3 hPa | 0 mm | - | - | - |
| 1778037683 | 3.33° C | 86% | 1008.1 hPa | 0 mm | - | - | - |
| 1778037382 | 3.33° C | 86% | 1008.1 hPa | 0 mm | - | - | - |
| 1778037082 | 3.33° C | 85% | 1008.1 hPa | 0 mm | - | - | - |
| 1778036781 | 3.33° C | 86% | 1008.1 hPa | 0 mm | - | - | - |
| 1778036482 | 3.33° C | 85% | 1007.7 hPa | 0 mm | - | - | - |
| 1778035881 | 3.89° C | 83% | 1007.5 hPa | 0 mm | - | - | - |
| 1778035280 | 4.44° C | 80% | 1007.6 hPa | 0 mm | - | - | - |
| 1778034680 | 5° C | 77% | 1006.9 hPa | 0 mm | - | - | - |
| 1778034379 | 5° C | 74% | 1006.6 hPa | 0 mm | - | - | - |
| 1778034079 | 5° C | 73% | 1006.8 hPa | 0 mm | - | - | - |
| 1778033779 | 5.56° C | 70% | 1006.8 hPa | 0 mm | - | - | - |
| 1778033478 | 5.56° C | 68% | 1006.6 hPa | 0 mm | - | - | - |
| 1778033178 | 5° C | 69% | 1006.7 hPa | 0 mm | - | - | - |
| 1778032878 | 5° C | 70% | 1006.7 hPa | 0 mm | - | - | - |
* Rain latest hour (hover to see other rain measurements)
** Current wind speed in m/s (hover to see current wind gust speed)